20051113,000010,864004,32.391118,-121.542981,3.8,16.987,33.282,43.192,1024.01,0.0,0.374,16.983,16.944, NaN,24.113,   NaN,15.51,1018.75,82.84,15.68,65.8,74.2,10.0,5.6,343.3,10.6,9.2,6.4,NaN, NaN,18.0,245.8,248.2,1131840010,1131840010,1,9.9,000011,000010,245.5,32.391075,-121.542833,9.59,NaN,NaN,17.304, NaN,NaN,NaN, NaN, NaN
20051113,000040,864035,32.390478,-121.544336,3.7,16.987,33.276,43.185,879.44,0.0,0.346,16.981,16.943, NaN,24.109,   NaN,15.53,1018.61,82.75,15.71,64.7,70.5,10.3,6.4,341.2,2.6,9.4,6.7,NaN, NaN,17.0,245.4,244.1,1131840040,1131840040,1,9.0,000041,000040,245.4,32.390443,-121.544178,9.22,NaN,NaN,17.304, NaN,NaN,NaN, NaN, NaN
20051113,000110,864064,32.389800,-121.545703,3.7,16.980,33.278,43.181,682.45,0.0,0.326,16.979,16.943, NaN,24.112,   NaN,15.51,1018.60,82.42,15.67,65.0,67.0,10.3,6.8,340.9,358.9,9.4,6.8,NaN, NaN,17.0,247.0,235.1,1131840071,1131840070,1,9.4,000071,000070,247.0,32.389773,-121.545550,9.53,NaN,NaN,17.297, NaN,NaN,NaN, NaN, NaN
20051113,000139,864093,32.389190,-121.547061,3.7,16.979,33.277,43.179,525.02,0.0,0.306,16.976,16.942, NaN,24.112,   NaN,15.56,1018.76,82.15,15.71,68.0,72.3,10.2,6.6,344.0,3.6,9.6,7.0,NaN, NaN,17.0,247.1,240.4,1131840100,1131840099,1,9.8,000100,000099,247.1,32.389153,-121.546906,9.72,NaN,NaN,17.296, NaN,NaN,NaN, NaN, NaN
20051113,000210,864124,32.388493,-121.548521,3.8,16.980,33.275,43.178,663.87,0.0,0.324,16.972,16.936, NaN,24.110,   NaN,15.58,1018.77,81.85,15.71,69.8,70.9,9.9,5.8,347.4,15.7,9.5,6.4,NaN, NaN,17.0,248.0,238.3,1131840130,1131840130,1,9.5,000131,000130,248.0,32.388468,-121.548360,9.48,NaN,NaN,17.297, NaN,NaN,NaN, NaN, NaN
20051113,000240,864154,32.387893,-121.549901,3.8,16.973,33.275,43.172,658.67,0.0,0.323,16.969,16.934, NaN,24.111,   NaN,15.53,1018.83,81.24,15.66,70.8,59.8,9.7,4.8,349.2,28.4,9.4,5.3,NaN, NaN,17.0,247.1,252.1,1131840160,1131840159,1,10.1,000160,000159,247.1,32.387870,-121.549750,9.57,NaN,NaN,17.291, NaN,NaN,NaN, NaN, NaN
20051113,000310,864184,32.387223,-121.551351,3.8,16.977,33.275,43.175,625.25,0.0,0.324,16.971,16.934, NaN,24.111,   NaN,15.58,1018.87,81.30,15.72,71.1,69.5,9.8,5.3,348.7,23.1,9.5,6.2,NaN, NaN,17.0,248.0,241.9,1131840190,1131840190,1,10.1,000191,000190,248.0,32.387188,-121.551205,9.66,NaN,NaN,17.294, NaN,NaN,NaN, NaN, NaN
20051113,000339,864213,32.386607,-121.552718,3.7,16.967,33.275,43.166,520.05,0.0,0.316,16.968,16.934, NaN,24.113,   NaN,15.58,1018.78,81.17,15.70,72.9,87.6,9.7,5.4,350.6,20.7,9.5,7.2,NaN, NaN,17.0,247.6,238.6,1131840220,1131840219,1,9.8,000220,000219,247.6,32.386567,-121.552568,9.67,NaN,NaN,17.285, NaN,NaN,NaN, NaN, NaN
20051113,000410,864244,32.385953,-121.554186,3.8,16.966,33.278,43.168,627.53,0.0,0.330,16.969,16.933, NaN,24.116,   NaN,15.65,1018.87,81.43,15.78,72.1,87.4,8.9,4.8,352.8,28.7,8.8,6.8,NaN, NaN,18.0,248.5,249.9,1131840251,1131840250,1,10.2,000251,000250,247.8,32.385895,-121.554031,9.74,NaN,NaN,17.284, NaN,NaN,NaN, NaN, NaN
20051113,000440,864274,32.385278,-121.555585,3.8,16.966,33.274,43.163,778.78,0.0,0.369,16.966,16.931, NaN,24.112,   NaN,15.67,1018.64,81.71,15.79,69.7,70.5,8.8,4.2,351.0,37.5,8.5,5.8,NaN, NaN,18.0,247.9,235.3,1131840281,1131840280,1,10.0,000281,000280,247.9,32.385248,-121.555433,9.63,NaN,NaN,17.284, NaN,NaN,NaN, NaN, NaN
20051113,000510,864304,32.384652,-121.556993,3.9,16.965,33.273,43.162,926.52,0.0,0.386,16.967,16.931, NaN,24.112,   NaN,15.60,1018.84,81.59,15.77,72.8,73.6,9.1,4.3,352.6,30.1,9.0,5.8,NaN, NaN,17.0,248.3,247.0,1131840310,1131840310,1,9.5,000311,000310,248.3,32.384610,-121.556833,9.71,NaN,NaN,17.283, NaN,NaN,NaN, NaN, NaN
20051113,000540,864334,32.384002,-121.558415,3.7,16.966,33.270,43.160,675.03,0.0,0.349,16.967,16.932, NaN,24.109,   NaN,15.63,1018.78,81.96,15.80,72.2,83.7,9.1,4.1,352.3,27.1,8.9,6.1,NaN, NaN,17.0,247.3,234.7,1131840341,1131840340,1,9.8,000341,000340,247.3,32.383933,-121.558238,9.56,NaN,NaN,17.284, NaN,NaN,NaN, NaN, NaN
20051113,000611,864365,32.383365,-121.559831,3.7,16.963,33.272,43.159,652.32,0.0,0.346,16.970,16.933, NaN,24.112,   NaN,15.66,1018.92,82.29,15.80,70.9,80.6,9.3,5.0,350.6,20.5,9.0,6.6,NaN, NaN,17.0,247.4,255.7,1131840371,1131840371,1,9.7,000371,000371,247.4,32.383295,-121.559721,9.81,NaN,NaN,17.281, NaN,NaN,NaN, NaN, NaN
20051113,000640,864394,32.382702,-121.561231,3.7,16.968,33.266,43.156,882.79,0.0,0.385,16.973,16.935, NaN,24.106,   NaN,15.69,1018.75,82.70,15.83,72.6,67.9,9.3,5.9,352.2,11.0,9.2,6.6,NaN, NaN,17.0,248.0,237.2,1131840401,1131840400,1,9.7,000401,000400,248.0,32.382658,-121.561080,9.59,NaN,NaN,17.286, NaN,NaN,NaN, NaN, NaN
20051113,000710,864424,32.382112,-121.562661,3.8,16.966,33.264,43.153,807.60,0.0,0.361,16.972,16.939, NaN,24.105,   NaN,15.66,1018.81,82.76,15.82,70.2,66.7,9.1,5.0,351.1,16.1,8.8,5.8,NaN, NaN,17.0,247.5,259.0,1131840430,1131840430,1,9.6,000431,000430,247.7,32.382033,-121.562503,9.67,NaN,NaN,17.284, NaN,NaN,NaN, NaN, NaN
20051113,000740,864454,32.381438,-121.564031,3.7,16.968,33.267,43.158,913.90,0.0,0.384,16.977,16.943, NaN,24.107,   NaN,15.61,1018.84,82.46,15.75,68.3,69.1,9.2,5.0,348.9,16.8,8.7,5.9,NaN, NaN,17.0,246.5,240.2,1131840461,1131840460,1,9.8,000461,000460,246.5,32.381388,-121.563885,9.47,NaN,NaN,17.286, NaN,NaN,NaN, NaN, NaN
20051113,000810,864484,32.380800,-121.565418,4.0,16.970,33.263,43.156,896.73,0.0,0.381,16.980,16.944, NaN,24.103,   NaN,15.62,1018.71,82.53,15.79,66.5,68.3,9.5,5.4,345.5,14.6,8.8,6.1,NaN, NaN,17.0,247.6,250.4,1131840491,1131840490,1,9.5,000491,000490,247.6,32.380757,-121.565265,9.54,NaN,NaN,17.288, NaN,NaN,NaN, NaN, NaN
20051113,000840,864514,32.380140,-121.566823,3.8,16.977,33.256,43.153,1031.91,0.0,0.395,16.983,16.948, NaN,24.096,   NaN,15.60,1018.62,82.26,15.74,63.6,69.1,10.2,6.5,340.4,4.6,9.2,6.8,NaN, NaN,17.0,247.8,247.6,1131840521,1131840520,1,9.9,000521,000520,247.8,32.380108,-121.566673,9.73,NaN,NaN,17.294, NaN,NaN,NaN, NaN, NaN
20051113,000910,864545,32.379482,-121.568243,3.9,16.980,33.254,43.154,877.20,0.0,0.384,16.991,16.957, NaN,24.094,   NaN,15.58,1018.64,81.80,15.73,66.1,67.6,10.5,6.3,342.0,5.4,9.6,6.6,NaN, NaN,17.0,247.5,247.9,1131840551,1131840550,1,9.7,000551,000550,247.5,32.379465,-121.568100,9.55,NaN,NaN,17.297, NaN,NaN,NaN, NaN, NaN
20051113,000940,864574,32.378818,-121.569656,3.8,16.986,33.248,43.152,1006.17,0.0,0.391,16.997,16.963, NaN,24.088,   NaN,15.55,1018.71,81.18,15.69,69.3,69.4,10.1,4.6,346.3,17.4,9.5,5.6,NaN, NaN,17.0,247.1,244.6,1131840580,1131840580,1,9.8,000581,000580,247.1,32.378807,-121.569511,9.56,NaN,NaN,17.303, NaN,NaN,NaN, NaN, NaN
20051113,001010,864604,32.378177,-121.571071,3.8,16.993,33.239,43.147,831.80,0.0,0.365,17.006,16.970, NaN,24.078,   NaN,15.57,1018.64,81.14,15.74,71.9,74.4,9.7,4.3,349.9,21.4,9.4,5.8,NaN, NaN,17.0,248.8,240.8,1131840610,1131840610,1,10.2,000611,000610,248.6,32.378137,-121.570918,9.73,NaN,NaN,17.310, NaN,NaN,NaN, NaN, NaN
20051113,001040,864634,32.377538,-121.572518,3.8,16.998,33.239,43.152,841.50,0.0,0.366,17.013,16.977, NaN,24.077,   NaN,15.63,1018.59,81.35,15.73,72.1,71.5,9.5,4.6,351.4,27.1,9.3,5.7,NaN, NaN,17.0,247.6,244.1,1131840641,1131840640,1,10.3,000641,000640,247.6,32.377502,-121.572373,9.93,NaN,NaN,17.315, NaN,NaN,NaN, NaN, NaN
20051113,001110,864664,32.376897,-121.573901,3.8,17.006,33.230,43.149,946.75,0.0,0.389,17.017,16.981, NaN,24.068,   NaN,15.65,1018.81,81.48,15.81,70.0,78.6,9.3,5.1,350.1,31.5,8.9,6.5,NaN, NaN,17.0,248.5,242.8,1131840670,1131840670,1,9.7,000671,000670,247.7,32.376863,-121.573758,9.44,NaN,NaN,17.323, NaN,NaN,NaN, NaN, NaN
20051113,001140,864694,32.376250,-121.575280,3.7,17.010,33.228,43.151,876.02,0.0,0.371,17.021,16.985, NaN,24.066,   NaN,15.68,1018.64,81.57,15.82,68.7,80.4,9.3,5.6,347.8,19.6,8.8,7.1,NaN, NaN,17.0,247.5,234.5,1131840701,1131840700,1,10.4,000701,000700,247.5,32.376228,-121.575140,9.45,NaN,NaN,17.327, NaN,NaN,NaN, NaN, NaN
20051113,001210,864725,32.375628,-121.576671,3.8,17.016,33.228,43.157,908.20,0.0,0.383,17.027,16.994, NaN,24.065,   NaN,15.69,1018.73,81.79,15.85,64.4,72.1,9.6,5.8,342.5,8.5,8.7,6.5,NaN, NaN,17.0,247.0,245.5,1131840731,1131840730,1,9.7,000731,000730,247.0,32.375607,-121.576525,9.50,NaN,NaN,17.333, NaN,NaN,NaN, NaN, NaN
20051113,001241,864755,32.374988,-121.578085,3.9,17.028,33.219,43.157,890.72,0.0,0.373,17.039,17.003, NaN,24.055,   NaN,15.68,1018.57,81.71,15.84,63.0,69.1,9.9,6.1,340.7,3.9,8.8,6.3,NaN, NaN,17.0,246.8,245.0,1131840761,1131840760,1,9.8,000761,000760,247.3,32.374960,-121.577933,9.84,NaN,NaN,17.345, NaN,NaN,NaN, NaN, NaN
20051113,001310,864784,32.374372,-121.579483,3.8,17.030,33.223,43.164,944.83,0.0,0.388,17.045,17.008, NaN,24.058,   NaN,15.63,1018.68,81.55,15.79,68.9,70.3,10.1,5.9,346.0,7.1,9.5,6.4,NaN, NaN,17.0,246.9,244.1,1131840791,1131840790,1,9.8,000791,000790,246.9,32.374318,-121.579335,9.70,NaN,NaN,17.347, NaN,NaN,NaN, NaN, NaN
20051113,001341,864815,32.373690,-121.580911,3.8,17.037,33.217,43.163,935.07,0.0,0.387,17.049,17.013, NaN,24.051,   NaN,15.66,1018.58,81.95,15.81,69.1,76.7,10.0,6.1,346.0,10.3,9.5,7.0,NaN, NaN,18.0,246.3,242.3,1131840821,1131840821,1,9.7,000822,000821,246.3,32.373655,-121.580768,9.47,NaN,NaN,17.354, NaN,NaN,NaN, NaN, NaN
20051113,001410,864844,32.373052,-121.582270,3.7,17.040,33.221,43.172,940.37,0.0,0.381,17.050,17.016, NaN,24.054,   NaN,15.65,1018.65,82.35,15.86,68.6,81.3,9.9,5.9,345.8,12.0,9.3,7.0,NaN, NaN,17.0,248.0,237.7,1131840850,1131840850,1,10.0,000851,000850,248.0,32.373028,-121.582118,9.62,NaN,NaN,17.357, NaN,NaN,NaN, NaN, NaN
20051113,001441,864875,32.372420,-121.583655,3.8,17.049,33.219,43.178,759.56,0.0,0.367,17.057,17.025, NaN,24.050,   NaN,15.71,1018.66,83.10,15.92,68.5,76.2,9.4,5.7,347.7,10.7,8.8,6.6,NaN, NaN,17.0,246.8,229.4,1131840881,1131840880,1,10.0,000881,000880,246.8,32.372400,-121.583515,9.40,NaN,NaN,17.366, NaN,NaN,NaN, NaN, NaN
20051113,001511,864905,32.371757,-121.585081,3.7,17.056,33.213,43.176,921.07,0.0,0.385,17.060,17.025, NaN,24.043,   NaN,15.77,1018.64,83.64,15.94,62.2,69.2,9.1,5.9,342.6,8.8,8.1,6.6,NaN, NaN,17.0,247.7,230.7,1131840911,1131840911,1,9.3,000912,000911,247.7,32.371737,-121.584933,9.50,NaN,NaN,17.372, NaN,NaN,NaN, NaN, NaN
20051113,001540,864934,32.371155,-121.586433,3.7,17.059,33.214,43.180,924.87,0.0,0.385,17.065,17.029, NaN,24.044,   NaN,15.69,1018.44,82.76,15.81,62.6,67.7,10.2,6.3,339.4,5.1,9.1,6.7,NaN, NaN,17.0,248.2,235.4,1131840941,1131840940,1,9.7,000941,000940,248.2,32.371142,-121.586293,9.42,NaN,NaN,17.375, NaN,NaN,NaN, NaN, NaN
20051113,001611,864966,32.370478,-121.587876,3.7,17.067,33.213,43.187,918.85,0.0,0.397,17.070,17.035, NaN,24.041,   NaN,15.64,1018.57,81.61,15.81,66.9,62.7,10.5,5.3,343.0,14.3,9.7,5.8,NaN, NaN,17.0,249.7,240.6,1131840971,1131840971,1,10.1,000972,000971,249.7,32.370452,-121.587733,9.51,NaN,NaN,17.383, NaN,NaN,NaN, NaN, NaN
20051113,001641,864995,32.369910,-121.589255,3.8,17.072,33.214,43.192,909.80,0.0,0.396,17.071,17.039, NaN,24.041,   NaN,15.59,1018.67,80.74,15.74,71.6,68.4,9.9,4.5,349.3,22.2,9.5,5.6,NaN, NaN,16.0,246.8,245.4,1131841001,1131841000,1,10.2,001001,001000,246.8,32.369875,-121.589120,9.67,NaN,NaN,17.388, NaN,NaN,NaN, NaN, NaN
20051113,001710,865024,32.369243,-121.590685,3.8,17.073,33.217,43.197,879.45,0.0,0.378,17.076,17.043, NaN,24.043,   NaN,15.61,1018.81,80.64,15.77,72.4,76.3,9.9,4.4,350.0,22.1,9.7,5.9,NaN, NaN,16.0,249.3,240.3,1131841031,1131841030,1,10.6,001031,001030,249.3,32.369223,-121.590543,9.61,NaN,NaN,17.389, NaN,NaN,NaN, NaN, NaN
20051113,001740,865055,32.368618,-121.592128,3.7,17.080,33.215,43.201,887.95,0.0,0.380,17.082,17.049, NaN,24.039,   NaN,15.64,1018.80,80.90,15.81,70.1,71.9,9.6,4.5,349.1,21.4,9.2,5.8,NaN, NaN,16.0,247.2,253.8,1131841061,1131841060,1,10.0,001061,001060,247.2,32.368603,-121.591993,9.83,NaN,NaN,17.396, NaN,NaN,NaN, NaN, NaN
20051113,001810,865084,32.367982,-121.593560,3.8,17.080,33.218,43.205,881.70,0.0,0.385,17.085,17.050, NaN,24.042,   NaN,15.75,1018.70,81.74,15.92,68.7,72.9,9.3,5.5,349.1,14.4,8.8,6.5,NaN, NaN,16.0,246.8,243.3,1131841091,1131841090,1,9.8,001091,001090,246.8,32.367963,-121.593416,9.61,NaN,NaN,17.396, NaN,NaN,NaN, NaN, NaN
20051113,001840,865114,32.367327,-121.594968,3.8,17.084,33.218,43.209,867.83,0.0,0.383,17.089,17.058, NaN,24.041,   NaN,15.76,1018.76,82.20,15.92,65.9,67.3,9.5,6.2,345.4,11.6,8.8,6.7,NaN, NaN,16.0,248.2,239.5,1131841121,1131841120,1,9.4,001121,001120,248.2,32.367288,-121.594821,9.59,NaN,NaN,17.400, NaN,NaN,NaN, NaN, NaN
20051113,001910,865144,32.366712,-121.596378,3.7,17.086,33.218,43.211,849.58,0.0,0.380,17.094,17.062, NaN,24.041,   NaN,15.70,1018.70,82.00,15.87,66.9,67.8,9.9,6.6,344.6,7.7,9.2,7.0,NaN, NaN,16.0,247.4,235.1,1131841151,1131841150,1,10.6,001151,001150,247.4,32.366663,-121.596233,9.54,NaN,NaN,17.402, NaN,NaN,NaN, NaN, NaN
20051113,001941,865175,32.366083,-121.597828,3.8,17.093,33.220,43.219,834.40,0.0,0.372,17.098,17.064, NaN,24.040,   NaN,15.72,1018.69,82.02,15.89,69.2,76.3,10.1,5.5,346.1,14.6,9.5,6.6,NaN, NaN,17.0,247.8,244.4,1131841181,1131841181,1,9.6,001182,001181,247.8,32.366028,-121.597675,9.71,NaN,NaN,17.409, NaN,NaN,NaN, NaN, NaN
20051113,002010,865204,32.365463,-121.599196,3.8,17.094,33.221,43.221,838.86,0.0,0.366,17.101,17.069, NaN,24.041,   NaN,15.75,1018.71,82.03,15.91,67.7,86.2,9.6,4.3,346.2,28.3,9.0,6.2,NaN, NaN,18.0,245.5,246.8,1131841211,1131841210,1,9.9,001211,001210,245.5,32.365430,-121.599055,9.71,NaN,NaN,17.410, NaN,NaN,NaN, NaN, NaN
20051113,002040,865235,32.364832,-121.600600,3.9,17.100,33.219,43.225,799.46,0.0,0.366,17.110,17.075, NaN,24.038,   NaN,15.74,1018.67,81.77,15.90,66.0,78.8,9.4,4.6,345.7,27.8,8.7,6.1,NaN, NaN,18.0,248.8,241.9,1131841241,1131841240,1,10.1,001241,001240,248.8,32.364793,-121.600453,9.33,NaN,NaN,17.416, NaN,NaN,NaN, NaN, NaN
20051113,002111,865265,32.364182,-121.602053,3.8,17.100,33.218,43.224,809.21,0.0,0.374,17.111,17.075, NaN,24.037,   NaN,15.69,1018.69,81.18,15.86,68.5,81.5,9.7,5.1,346.7,24.2,9.1,6.6,NaN, NaN,19.0,247.1,250.4,1131841271,1131841271,1,9.6,001272,001271,247.1,32.364153,-121.601900,9.70,NaN,NaN,17.416, NaN,NaN,NaN, NaN, NaN
20051113,002140,865294,32.363560,-121.603383,3.9,17.105,33.219,43.230,806.08,0.0,0.380,17.113,17.078, NaN,24.037,   NaN,15.69,1018.67,80.95,15.86,71.5,90.9,9.9,5.3,348.5,21.5,9.5,7.2,NaN, NaN,18.0,248.1,250.5,1131841301,1131841300,1,8.5,001301,001300,248.1,32.363527,-121.603228,9.60,NaN,NaN,17.421, NaN,NaN,NaN, NaN, NaN
20051113,002211,865325,32.362935,-121.604810,3.8,17.109,33.218,43.233,792.01,0.0,0.365,17.115,17.079, NaN,24.035,   NaN,15.70,1018.79,80.96,15.86,69.2,75.1,9.8,6.2,347.3,7.7,9.3,6.9,NaN, NaN,17.0,249.5,259.8,1131841331,1131841331,1,9.6,001332,001331,249.5,32.362907,-121.604650,9.41,NaN,NaN,17.425, NaN,NaN,NaN, NaN, NaN
20051113,002240,865354,32.362302,-121.606120,3.7,17.110,33.219,43.235,781.54,0.0,0.370,17.115,17.080, NaN,24.036,   NaN,15.76,1018.88,81.58,15.92,66.7,74.0,9.8,6.5,344.1,4.0,9.1,7.0,NaN, NaN,18.0,246.9,243.0,1131841361,1131841360,1,9.2,001361,001360,246.9,32.362280,-121.605951,9.23,NaN,NaN,17.426, NaN,NaN,NaN, NaN, NaN
20051113,002310,865385,32.361667,-121.607505,3.7,17.113,33.219,43.238,778.33,0.0,0.376,17.116,17.080, NaN,24.035,   NaN,15.70,1018.78,81.70,15.89,66.4,85.1,10.0,6.3,342.6,10.5,9.2,7.4,NaN, NaN,18.0,249.0,242.4,1131841391,1131841390,1,10.0,001391,001390,248.8,32.361642,-121.607350,9.53,NaN,NaN,17.429, NaN,NaN,NaN, NaN, NaN
20051113,002340,865414,32.361062,-121.608931,3.7,17.116,33.218,43.240,769.05,0.0,0.362,17.118,17.082, NaN,24.034,   NaN,15.66,1018.75,81.94,15.86,65.8,82.4,9.7,5.8,343.6,13.1,8.9,7.0,NaN, NaN,18.0,247.4,244.8,1131841421,1131841420,1,10.1,001421,001420,247.0,32.361020,-121.608780,9.70,NaN,NaN,17.432, NaN,NaN,NaN, NaN, NaN
20051113,002410,865444,32.360390,-121.610365,3.7,17.118,33.222,43.246,767.25,0.0,0.368,17.124,17.088, NaN,24.036,   NaN,15.63,1018.74,82.13,15.81,66.9,77.4,9.7,5.6,345.2,12.8,9.1,6.7,NaN, NaN,18.0,245.5,234.5,1131841451,1131841450,1,9.6,001451,001450,246.5,32.360370,-121.610211,9.83,NaN,NaN,17.434, NaN,NaN,NaN, NaN, NaN
20051113,002440,865474,32.359805,-121.611821,3.9,17.120,33.221,43.247,736.96,0.0,0.370,17.129,17.096, NaN,24.035,   NaN,15.64,1018.72,82.34,15.85,64.9,75.4,9.8,6.0,344.3,10.5,8.9,6.9,NaN, NaN,17.0,249.5,242.2,1131841481,1131841480,1,10.2,001481,001480,249.5,32.359777,-121.611670,10.15,NaN,NaN,17.436, NaN,NaN,NaN, NaN, NaN
20051113,002511,865505,32.359230,-121.613270,3.8,17.125,33.219,43.248,746.34,0.0,0.365,17.134,17.099, NaN,24.032,   NaN,15.64,1018.81,82.21,15.79,62.7,63.5,10.0,6.7,342.3,7.5,8.9,6.7,NaN, NaN,17.0,249.1,248.7,1131841511,1131841511,1,9.3,001511,001511,248.3,32.359155,-121.613171,NaN,NaN,NaN,17.441, NaN,NaN,NaN, NaN, NaN
20051113,002541,865535,32.358625,-121.614733,3.8,17.127,33.221,43.253,709.57,0.0,0.366,17.136,17.103, NaN,24.033,   NaN,15.67,1018.80,82.29,15.85,62.2,57.2,10.0,6.6,342.1,6.0,8.9,6.3,NaN, NaN,16.0,249.4,235.6,1131841541,1131841540,1,9.8,001541,001540,249.4,32.358578,-121.614590,9.64,NaN,NaN,17.443, NaN,NaN,NaN, NaN, NaN
20051113,002610,865565,32.358042,-121.616190,3.8,17.129,33.221,43.255,723.07,0.0,0.361,17.137,17.104, NaN,24.033,   NaN,15.74,1018.66,82.48,15.90,62.1,62.6,10.1,6.7,341.8,1.4,9.0,6.4,NaN, NaN,16.0,249.6,246.4,1131841571,1131841570,1,9.7,001571,001570,249.6,32.358000,-121.616045,9.73,NaN,NaN,17.445, NaN,NaN,NaN, NaN, NaN
20051113,002641,865595,32.357420,-121.617675,3.8,17.132,33.222,43.257,650.28,0.0,0.351,17.137,17.100, NaN,24.033,   NaN,15.66,1018.70,81.75,15.81,61.6,68.4,10.8,7.1,339.0,0.5,9.5,7.1,NaN, NaN,16.0,249.3,238.2,1131841601,1131841601,1,9.9,001602,001601,249.3,32.357380,-121.617531,9.67,NaN,NaN,17.447, NaN,NaN,NaN, NaN, NaN
20051113,002711,865626,32.356870,-121.619121,3.8,17.129,33.226,43.262,639.25,0.0,0.356,17.133,17.097, NaN,24.036,   NaN,15.62,1018.84,81.02,15.78,63.7,73.4,10.7,6.8,341.7,6.5,9.6,7.3,NaN, NaN,16.0,249.1,243.3,1131841631,1131841631,1,9.1,001632,001631,249.1,32.356817,-121.618968,9.60,NaN,NaN,17.445, NaN,NaN,NaN, NaN, NaN
20051113,002740,865654,32.356322,-121.620471,3.6,17.131,33.227,43.264,657.82,0.0,0.358,17.128,17.091, NaN,24.037,   NaN,15.62,1018.91,81.01,15.78,65.6,76.0,10.2,6.3,344.3,11.9,9.3,7.2,NaN, NaN,16.0,250.1,253.8,1131841661,1131841660,1,10.3,001661,001660,250.1,32.356252,-121.620331,9.55,NaN,NaN,17.446, NaN,NaN,NaN, NaN, NaN
20051113,002810,865684,32.355730,-121.621890,3.9,17.125,33.233,43.266,635.88,0.0,0.355,17.122,17.086, NaN,24.043,   NaN,15.71,1018.81,81.68,15.91,64.2,76.8,9.7,6.4,344.0,10.0,8.7,7.2,NaN, NaN,16.0,248.4,243.5,1131841691,1131841690,1,9.7,001691,001690,248.1,32.355693,-121.621745,9.47,NaN,NaN,17.441, NaN,NaN,NaN, NaN, NaN
20051113,002840,865715,32.355125,-121.623295,3.8,17.125,33.234,43.267,657.80,0.0,0.346,17.121,17.082, NaN,24.043,   NaN,15.72,1018.65,81.72,15.87,64.5,71.2,9.8,6.3,344.5,7.0,8.8,6.7,NaN, NaN,16.0,247.8,236.8,1131841721,1131841720,1,9.5,001721,001720,247.8,32.355095,-121.623141,8.86,NaN,NaN,17.441, NaN,NaN,NaN, NaN, NaN
20051113,002910,865744,32.354540,-121.624678,3.8,17.123,33.236,43.267,646.47,0.0,0.350,17.119,17.081, NaN,24.045,   NaN,15.64,1018.63,80.68,15.79,67.0,70.6,10.2,6.1,345.2,9.7,9.4,6.6,NaN, NaN,17.0,251.5,237.7,1131841751,1131841750,1,10.0,001751,001750,251.5,32.354507,-121.624533,9.15,NaN,NaN,17.439, NaN,NaN,NaN, NaN, NaN
20051113,002940,865774,32.353992,-121.626135,3.8,17.123,33.238,43.269,614.71,0.0,0.358,17.118,17.081, NaN,24.047,   NaN,15.67,1018.75,80.25,15.83,66.9,75.9,10.1,6.4,345.4,10.3,9.3,7.1,NaN, NaN,16.0,248.3,246.4,1131841781,1131841780,1,9.6,001781,001780,248.3,32.353968,-121.625981,9.65,NaN,NaN,17.439, NaN,NaN,NaN, NaN, NaN
20051113,003010,865804,32.353367,-121.627570,3.7,17.116,33.242,43.269,618.51,0.0,0.353,17.118,17.081, NaN,24.053,   NaN,15.67,1018.84,80.07,15.83,65.4,77.6,9.8,6.3,345.5,10.8,9.0,7.2,NaN, NaN,17.0,250.1,235.0,1131841811,1131841810,1,9.8,001811,001810,250.1,32.353353,-121.627418,9.54,NaN,NaN,17.432, NaN,NaN,NaN, NaN, NaN
20051113,003041,865835,32.352818,-121.629063,3.8,17.116,33.245,43.271,596.71,0.0,0.338,17.112,17.075, NaN,24.055,   NaN,15.72,1018.94,80.42,15.91,66.8,75.0,9.4,5.6,348.3,14.4,8.8,6.5,NaN, NaN,18.0,249.1,249.2,1131841841,1131841841,1,9.7,001842,001841,249.1,32.352800,-121.628921,9.37,NaN,NaN,17.432, NaN,NaN,NaN, NaN, NaN
20051113,003110,865864,32.352293,-121.630451,3.8,17.112,33.246,43.269,555.22,0.0,0.332,17.112,17.076, NaN,24.056,   NaN,15.75,1018.87,80.86,15.92,64.2,71.1,9.3,5.3,346.2,12.8,8.4,6.0,NaN, NaN,17.0,247.6,252.9,1131841871,1131841870,1,9.3,001871,001870,247.6,32.352273,-121.630291,9.34,NaN,NaN,17.428, NaN,NaN,NaN, NaN, NaN
20051113,003141,865895,32.351705,-121.631880,3.8,17.114,33.242,43.266,579.76,0.0,0.341,17.113,17.075, NaN,24.053,   NaN,15.81,1018.82,81.61,15.98,61.3,68.0,9.8,6.2,340.7,3.3,8.6,6.3,NaN, NaN,17.0,248.1,254.3,1131841901,1131841901,1,9.5,001902,001901,248.1,32.351682,-121.631728,9.38,NaN,NaN,17.430, NaN,NaN,NaN, NaN, NaN
20051113,003210,865924,32.351138,-121.633246,3.9,17.117,33.240,43.266,558.05,0.0,0.333,17.112,17.074, NaN,24.050,   NaN,15.69,1018.77,81.39,15.89,60.6,64.2,10.4,7.4,337.9,353.7,9.1,6.9,NaN, NaN,17.0,249.5,259.2,1131841931,1131841930,1,9.5,001931,001930,249.5,32.351117,-121.633093,9.45,NaN,NaN,17.433, NaN,NaN,NaN, NaN, NaN
20051113,003241,865955,32.350518,-121.634705,3.9,17.110,33.245,43.266,533.79,0.0,0.335,17.112,17.075, NaN,24.056,   NaN,15.68,1018.62,81.34,15.89,62.0,64.7,10.6,7.2,339.0,356.2,9.3,6.8,NaN, NaN,17.0,250.8,250.5,1131841961,1131841961,1,9.9,001962,001961,250.8,32.350490,-121.634540,9.46,NaN,NaN,17.426, NaN,NaN,NaN, NaN, NaN
20051113,003310,865984,32.349960,-121.636081,3.7,17.117,33.237,43.263,501.12,0.0,0.331,17.113,17.077, NaN,24.048,   NaN,15.68,1018.78,80.89,15.83,63.5,65.7,10.7,6.5,340.6,2.6,9.6,6.5,NaN, NaN,18.0,249.5,243.8,1131841991,1131841990,1,10.0,001991,001990,249.6,32.349945,-121.635925,9.39,NaN,NaN,17.433, NaN,NaN,NaN, NaN, NaN
20051113,003340,866014,32.349398,-121.637496,3.7,17.109,33.241,43.261,477.11,0.0,0.328,17.113,17.078, NaN,24.054,   NaN,15.66,1018.84,80.24,15.81,66.0,70.9,10.6,6.7,343.7,4.6,9.7,7.1,NaN, NaN,17.0,250.9,233.4,1131842021,1131842020,1,10.3,002021,002020,250.9,32.349355,-121.637343,9.26,NaN,NaN,17.425, NaN,NaN,NaN, NaN, NaN
20051113,003410,866044,32.348877,-121.638938,3.7,17.108,33.242,43.261,462.82,0.0,0.320,17.113,17.078, NaN,24.054,   NaN,15.68,1018.87,80.15,15.88,67.7,74.4,9.8,6.4,347.5,8.0,9.2,7.0,NaN, NaN,17.0,249.8,234.1,1131842051,1131842050,1,10.4,002051,002050,249.8,32.348807,-121.638781,9.49,NaN,NaN,17.424, NaN,NaN,NaN, NaN, NaN
20051113,003441,866075,32.348312,-121.640436,3.8,17.108,33.241,43.258,436.29,0.0,0.322,17.113,17.078, NaN,24.053,   NaN,15.67,1019.03,80.31,15.85,66.4,73.6,9.3,5.9,347.9,11.6,8.6,6.6,NaN, NaN,17.0,251.0,256.1,1131842082,1131842081,1,9.2,002082,002081,251.0,32.348248,-121.640276,9.67,NaN,NaN,17.424, NaN,NaN,NaN, NaN, NaN
20051113,003511,866105,32.347745,-121.641886,3.7,17.107,33.241,43.258,428.97,0.0,0.321,17.111,17.076, NaN,24.054,   NaN,15.71,1018.91,80.87,15.92,63.7,71.7,9.3,6.4,345.3,6.5,8.4,6.8,NaN, NaN,18.0,249.1,248.2,1131842111,1131842111,1,9.8,002112,002111,249.1,32.347702,-121.641728,NaN,NaN,NaN,17.423, NaN,NaN,NaN, NaN, NaN
20051113,003540,866134,32.347158,-121.643265,3.9,17.106,33.242,43.258,463.48,0.0,0.321,17.111,17.076, NaN,24.055,   NaN,15.75,1018.48,81.52,15.95,61.3,68.2,9.6,6.7,341.6,0.6,8.5,6.7,NaN, NaN,18.0,248.8,250.6,1131842141,1131842140,1,9.6,002141,002140,248.8,32.347112,-121.643100,9.83,NaN,NaN,17.422, NaN,NaN,NaN, NaN, NaN
20051113,003611,866165,32.346587,-121.644751,3.7,17.102,33.243,43.256,447.13,0.0,0.324,17.111,17.073, NaN,24.057,   NaN,15.71,1018.81,81.63,15.91,59.6,67.3,10.1,7.0,338.1,358.8,8.7,6.9,NaN, NaN,18.0,249.8,259.3,1131842171,1131842171,1,9.6,002172,002171,249.8,32.346517,-121.644586,9.61,NaN,NaN,17.418, NaN,NaN,NaN, NaN, NaN
20051113,003641,866195,32.345990,-121.646168,3.8,17.104,33.241,43.255,430.82,0.0,0.322,17.109,17.072, NaN,24.055,   NaN,15.73,1018.61,81.90,15.90,61.1,66.9,10.3,7.4,339.6,357.9,9.0,7.1,NaN, NaN,19.0,250.0,243.2,1131842201,1131842201,1,10.0,002202,002201,250.0,32.345935,-121.646000,9.31,NaN,NaN,17.420, NaN,NaN,NaN, NaN, NaN